Location: Oshawa
(43.9000°N, 78.8670°W)
Time: 10:01:38
(UTC-04:00)

Explorer 11/Cluster Stage 4 - Visible Passes

Search period start: 02 September 2014 00:00
Search period end: 12 September 2014 00:00
Orbit: 468 x 1284 km, 28.8° (Epoch: 01 September)

Date Brightness Start Highest point End Pass type
(mag) Time Alt. Az. Time Alt. Az. Time Alt. Az.
02 Sep 8.7 21:22:07 10° SSW 21:27:53 21° SSE 21:29:29 20° SSE visible
02 Sep 9.2 23:10:07 10° SW 23:11:54 16° SW 23:11:54 16° SW visible
03 Sep 8.6 21:14:51 10° SW 21:20:57 23° SSE 21:23:20 20° SE visible
03 Sep 9.1 23:03:05 10° SW 23:05:45 18° SW 23:05:45 18° SW visible
04 Sep 8.6 21:07:41 10° SW 21:14:01 24° S 21:17:06 20° SE visible
04 Sep 9.0 22:56:06 10° WSW 22:59:30 21° SW 22:59:30 21° SW visible
05 Sep 8.6 21:00:35 10° SW 21:07:04 26° S 21:10:47 19° SE visible
05 Sep 8.9 22:49:11 10° WSW 22:53:11 22° SSW 22:53:11 22° SSW visible
06 Sep 8.6 20:53:34 10° SW 21:00:07 27° S 21:04:23 18° SE visible
06 Sep 8.9 22:42:18 10° WSW 22:46:47 23° SSW 22:46:47 23° SSW visible
07 Sep 8.6 20:46:37 10° SW 20:53:10 27° S 20:57:57 16° SE visible
07 Sep 8.9 22:35:29 10° WSW 22:40:21 23° SSW 22:40:21 23° SSW visible
08 Sep 8.7 20:39:44 10° SW 20:46:13 27° S 20:51:29 15° SE visible
08 Sep 8.9 22:28:44 10° WSW 22:33:53 22° SSW 22:33:53 22° SSW visible
09 Sep 8.7 20:32:54 10° SW 20:39:16 27° S 20:45:00 13° SE visible
09 Sep 8.9 22:22:03 10° WSW 22:27:24 21° SSW 22:27:24 21° SSW visible
10 Sep 8.7 20:26:07 10° SW 20:32:20 26° S 20:38:31 11° SE visible
10 Sep 9.0 22:15:28 10° WSW 22:20:52 19° SSW 22:20:55 19° SSW visible
11 Sep 8.8 20:19:25 10° SW 20:25:24 25° S 20:31:49 10° SE visible
11 Sep 9.1 22:09:00 10° WSW 22:13:53 17° SSW 22:14:26 17° SSW visible
